When you browse on this site, cookies collect data to enhance your experience and personalize the content and advertising you see.
Visit our Privacy Policy to learn more. By continuing to use the site, you agree to this use of cookies and data.
  • In Czech Republic
  • List of Countries
  • For 7 days
  • Water Temperature
  • Satellite Maps
  • Weather Map
  • Weather Widgets
  • user-avatar
    Login

    Hourly Weather Zabid

    Today, 16 December, Sunday

    Time Temperature Precipitation Wind Pressure Humidity
    00:00 +29°C° 0 mm 3 mps 753 mmHg 59%
    01:00 +28°C° 0 mm 3 mps 753 mmHg 61%
    02:00 +28°C° 0 mm 4 mps 753 mmHg 62%
    03:00 +28°C° 0 mm 4 mps 753 mmHg 63%
    04:00 +27°C° 0 mm 4 mps 753 mmHg 63%
    05:00 +27°C° 0 mm 4 mps 753 mmHg 64%
    06:00 +26°C° 0 mm 4 mps 753 mmHg 65%
    07:00 +28°C° 0 mm 4 mps 754 mmHg 58%
    08:00 +29°C° 0 mm 4 mps 754 mmHg 51%
    09:00 +32°C° 0 mm 5 mps 755 mmHg 42%
    10:00 +33°C° 0 mm 5 mps 754 mmHg 38%
    11:00 +34°C° 0 mm 5 mps 754 mmHg 35%
    12:00 +35°C° 0 mm 6 mps 753 mmHg 32%
    13:00 +36°C° 0 mm 6 mps 753 mmHg 33%
    14:00 +36°C° 0 mm 6 mps 753 mmHg 35%
    15:00 +36°C° 0 mm 7 mps 752 mmHg 37%
    16:00 +34°C° 0 mm 6 mps 752 mmHg 43%
    17:00 +33°C° 0 mm 6 mps 752 mmHg 49%
    18:00 +32°C° 0 mm 6 mps 753 mmHg 55%
    19:00 +32°C° 0 mm 5 mps 753 mmHg 58%
    20:00 +30°C° 0 mm 5 mps 753 mmHg 61%
    21:00 +29°C° 0 mm 4 mps 754 mmHg 64%
    22:00 +29°C° 0 mm 4 mps 754 mmHg 64%
    23:00 +29°C° 0 mm 4 mps 754 mmHg 65%

    Tomorrow, 17 December, Monday

    Time Temperature Precipitation Wind Pressure Humidity
    00:00 +29°C° 0 mm 4 mps 754 mmHg 65%
    01:00 +28°C° 0 mm 4 mps 753 mmHg 65%
    02:00 +28°C° 0 mm 4 mps 753 mmHg 66%
    03:00 +27°C° 0 mm 4 mps 753 mmHg 66%
    04:00 +27°C° 0 mm 4 mps 753 mmHg 67%
    05:00 +27°C° 0 mm 4 mps 753 mmHg 67%
    06:00 +26°C° 0 mm 4 mps 754 mmHg 67%
    07:00 +27°C° 0 mm 4 mps 754 mmHg 60%
    08:00 +29°C° 0 mm 5 mps 754 mmHg 53%
    09:00 +30°C° 0 mm 5 mps 754 mmHg 46%
    10:00 +32°C° 0 mm 5 mps 753 mmHg 43%
    11:00 +34°C° 0 mm 6 mps 753 mmHg 39%
    12:00 +35°C° 0 mm 6 mps 753 mmHg 36%
    13:00 +35°C° 0 mm 7 mps 752 mmHg 37%
    14:00 +35°C° 0 mm 7 mps 751 mmHg 38%
    15:00 +35°C° 0 mm 8 mps 751 mmHg 40%
    16:00 +34°C° 0 mm 8 mps 751 mmHg 44%
    17:00 +33°C° 0 mm 7 mps 751 mmHg 49%
    18:00 +32°C° 0 mm 7 mps 752 mmHg 54%
    19:00 +30°C° 0 mm 6 mps 752 mmHg 56%
    20:00 +30°C° 0 mm 6 mps 753 mmHg 57%
    21:00 +29°C° 0 mm 5 mps 753 mmHg 59%
    22:00 +29°C° 0 mm 5 mps 753 mmHg 60%
    23:00 +29°C° 0 mm 4 mps 753 mmHg 61%

    Day after tomorrow, 18 December, Tuesday

    Time Temperature Precipitation Wind Pressure Humidity
    00:00 +28°C° 0 mm 4 mps 753 mmHg 62%
    01:00 +28°C° 0 mm 4 mps 753 mmHg 63%
    02:00 +28°C° 0 mm 4 mps 753 mmHg 64%
    03:00 +27°C° 0 mm 4 mps 752 mmHg 66%
    04:00 +27°C° 0 mm 4 mps 753 mmHg 67%
    05:00 +26°C° 0 mm 4 mps 753 mmHg 69%
    06:00 +26°C° 0 mm 4 mps 753 mmHg 70%
    07:00 +27°C° 0 mm 4 mps 753 mmHg 65%
    08:00 +28°C° 0 mm 4 mps 754 mmHg 59%
    09:00 +30°C° 0 mm 4 mps 754 mmHg 54%
    10:00 +32°C° 0 mm 5 mps 754 mmHg 50%
    11:00 +33°C° 0 mm 5 mps 753 mmHg 46%
    12:00 +34°C° 0 mm 6 mps 753 mmHg 42%
    13:00 +34°C° 0 mm 6 mps 752 mmHg 42%
    14:00 +34°C° 0 mm 6 mps 751 mmHg 42%
    15:00 +34°C° 0 mm 7 mps 751 mmHg 42%
    16:00 +33°C° 0 mm 6 mps 751 mmHg 45%
    17:00 +32°C° 0 mm 6 mps 751 mmHg 47%
    18:00 +30°C° 0 mm 5 mps 752 mmHg 50%
    19:00 +30°C° 0 mm 4 mps 752 mmHg 51%
    20:00 +30°C° 0 mm 4 mps 753 mmHg 53%
    21:00 +29°C° 0 mm 3 mps 754 mmHg 55%
    22:00 +29°C° 0 mm 3 mps 753 mmHg 56%
    23:00 +29°C° 0 mm 3 mps 753 mmHg 58%

    19 December, Wednesday

    Time Temperature Precipitation Wind Pressure Humidity
    00:00 +28°C° 0 mm 2 mps 753 mmHg 60%
    01:00 +28°C° 0 mm 2 mps 753 mmHg 62%
    02:00 +27°C° 0 mm 3 mps 753 mmHg 64%
    03:00 +27°C° 0 mm 3 mps 752 mmHg 67%
    04:00 +26°C° 0 mm 3 mps 753 mmHg 68%
    05:00 +26°C° 0 mm 3 mps 753 mmHg 69%
    06:00 +26°C° 0 mm 3 mps 753 mmHg 70%
    07:00 +27°C° 0 mm 3 mps 754 mmHg 62%
    08:00 +28°C° 0 mm 3 mps 754 mmHg 55%
    09:00 +30°C° 0 mm 3 mps 755 mmHg 48%
    10:00 +31°C° 0 mm 3 mps 754 mmHg 44%
    11:00 +33°C° 0 mm 4 mps 754 mmHg 41%
    12:00 +34°C° 0 mm 4 mps 753 mmHg 37%
    13:00 +34°C° 0 mm 4 mps 752 mmHg 38%
    14:00 +34°C° 0 mm 4 mps 752 mmHg 39%
    15:00 +35°C° 0 mm 4 mps 751 mmHg 40%
    16:00 +34°C° 0 mm 4 mps 751 mmHg 44%
    17:00 +33°C° 0 mm 3 mps 752 mmHg 47%
    18:00 +31°C° 0 mm 2 mps 752 mmHg 50%
    19:00 +31°C° 0 mm 2 mps 752 mmHg 52%
    20:00 +30°C° 0 mm 2 mps 753 mmHg 54%
    21:00 +30°C° 0 mm 2 mps 754 mmHg 56%
    22:00 +29°C° 0 mm 2 mps 753 mmHg 58%
    23:00 +29°C° 0 mm 3 mps 753 mmHg 60%

    20 December, Thursday

    Time Temperature Precipitation Wind Pressure Humidity
    00:00 +29°C° 0 mm 3 mps 753 mmHg 61%
    01:00 +28°C° 0 mm 3 mps 753 mmHg 63%
    02:00 +27°C° 0 mm 3 mps 752 mmHg 66%
    03:00 +27°C° 0 mm 3 mps 752 mmHg 68%
    04:00 +27°C° 0 mm 3 mps 752 mmHg 69%
    05:00 +26°C° 0 mm 3 mps 753 mmHg 69%
    06:00 +26°C° 0 mm 3 mps 753 mmHg 70%
    07:00 +27°C° 0 mm 3 mps 753 mmHg 65%
    08:00 +28°C° 0 mm 3 mps 754 mmHg 60%
    09:00 +29°C° 0 mm 3 mps 754 mmHg 54%
    10:00 +32°C° 0 mm 4 mps 754 mmHg 50%
    11:00 +33°C° 0 mm 4 mps 753 mmHg 47%
    12:00 +34°C° 0 mm 5 mps 753 mmHg 43%
    13:00 +34°C° 0 mm 5 mps 752 mmHg 43%
    14:00 +34°C° 0 mm 5 mps 751 mmHg 42%
    15:00 +34°C° 0 mm 5 mps 751 mmHg 42%
    16:00 +34°C° 0 mm 5 mps 751 mmHg 45%
    17:00 +33°C° 0 mm 4 mps 751 mmHg 48%
    18:00 +32°C° 0 mm 4 mps 752 mmHg 51%
    19:00 +30°C° 0 mm 4 mps 752 mmHg 52%
    20:00 +30°C° 0 mm 3 mps 753 mmHg 54%
    21:00 +29°C° 0 mm 3 mps 753 mmHg 56%
    22:00 +29°C° 0 mm 2 mps 753 mmHg 58%
    23:00 +29°C° 0 mm 2 mps 753 mmHg 59%

    21 December, Friday

    Time Temperature Precipitation Wind Pressure Humidity
    00:00 +28°C° 0 mm 2 mps 753 mmHg 60%
    01:00 +28°C° 0 mm 2 mps 752 mmHg 63%
    02:00 +27°C° 0 mm 2 mps 752 mmHg 66%
    03:00 +27°C° 0 mm 2 mps 752 mmHg 69%
    04:00 +27°C° 0 mm 2 mps 752 mmHg 72%
    05:00 +26°C° 0 mm 2 mps 753 mmHg 74%
    06:00 +26°C° 0 mm 2 mps 753 mmHg 77%
    07:00 +27°C° 0 mm 2 mps 753 mmHg 74%
    08:00 +28°C° 0 mm 2 mps 754 mmHg 70%
    09:00 +28°C° 0 mm 2 mps 754 mmHg 66%
    10:00 +29°C° 0 mm 2 mps 754 mmHg 62%
    11:00 +30°C° 0 mm 3 mps 753 mmHg 58%
    12:00 +31°C° 0 mm 3 mps 752 mmHg 54%
    13:00 +33°C° 0 mm 3 mps 752 mmHg 54%
    14:00 +33°C° 0 mm 3 mps 751 mmHg 54%
    15:00 +33°C° 0 mm 3 mps 750 mmHg 54%
    16:00 +31°C° 0 mm 3 mps 751 mmHg 57%
    17:00 +31°C° 0 mm 3 mps 751 mmHg 59%
    18:00 +30°C° 0 mm 2 mps 751 mmHg 62%
    19:00 +30°C° 0 mm 2 mps 752 mmHg 64%
    20:00 +29°C° 0 mm 2 mps 752 mmHg 67%
    21:00 +29°C° 0 mm 1 mps 753 mmHg 69%
    22:00 +28°C° 0 mm 1 mps 753 mmHg 71%
    23:00 +28°C° 0 mm 1 mps 752 mmHg 73%
    Show more